Location: Hormuz
(27.0871°N, 56.4580°E)
Time: 07:25:25
(UTC+04:30)

X-37B - Visible Passes

Search period start: 18 June 2021 00:00
Search period end: 28 June 2021 00:00
Orbit: 386 x 389 km, 45.0° (Epoch: 10 June)

Date Brightness Start Highest point End Pass type
(mag) Time Alt. Az. Time Alt. Az. Time Alt. Az.
20 Jun 3.2 05:06:33 10° NNW 05:09:11 24° NNE 05:11:50 10° E visible
21 Jun 3.9 04:09:00 10° N 04:10:39 13° NNE 04:12:17 10° ENE visible
21 Jun 1.5 20:38:52 10° SSW 20:41:38 27° SE 20:43:09 19° E visible
21 Jun 3.9 22:15:43 10° W 22:15:43 10° W 22:15:43 10° W visible
22 Jun 1.5 04:46:04 10° NW 04:49:09 51° NE 04:52:15 10° ESE visible
22 Jun 1.7 21:16:44 10° WSW 21:19:47 44° NW 21:22:51 10° NE visible
23 Jun 3.0 03:48:04 10° NNW 03:50:44 24° NNE 03:53:22 10° E visible
23 Jun 0.5 20:18:16 10° SW 20:21:26 73° SE 20:24:36 10° NE visible
23 Jun 4.0 21:56:58 10° NW 21:58:20 12° NNW 21:59:43 10° N visible
24 Jun 0.5 04:27:43 30° WNW 04:29:02 60° SW 04:32:08 10° SE visible
24 Jun 3.3 20:57:15 10° W 20:59:47 21° NNW 21:02:18 10° NNE visible
26 Jun 3.9 20:38:32 10° NW 20:39:52 12° NNW 20:41:14 10° N visible
